LZ3VG-2 Weather Reports


time (UTC)temp
F
wind
direction
speed
knots
gust
knots
rain 1hr
in
rain 24hr
in
rain mn
in
humidity
%
barometer
mb
20260504050556 47 186 9.6 13.0 0.00 0.00 0.00 73 1015.8
20260504045532 47 183 9.6 11.3 0.00 0.00 0.00 73 1015.8
20260504044530 47 181 10.4 13.0 0.00 0.00 0.00 73 1015.8
20260504043526 45 184 10.4 14.8 0.00 0.00 0.00 76 1015.8
20260504042543 45 184 11.3 16.5 0.00 0.00 0.00 78 1015.7
20260504041520 44 182 10.4 13.9 0.00 0.00 0.00 79 1015.7
20260504040517 44 182 11.3 14.8 0.00 0.00 0.00 78 1015.6
20260504035534 45 187 10.4 13.0 0.00 0.00 0.00 72 1015.5
20260504034531 44 194 9.6 13.0 0.00 0.00 0.00 72 1015.5
20260504033528 43 196 10.4 14.8 0.00 0.00 0.00 75 1015.4
20260504032525 42 192 11.3 13.9 0.00 0.00 0.00 77 1015.3
20260504031522 41 189 9.6 13.0 0.00 0.00 0.00 82 1015.3
20260504030520 41 184 9.6 13.0 0.00 0.00 0.00 84 1015.3
20260504025517 41 183 9.6 13.0 0.00 0.00 0.00 84 1015.1
20260504024554 41 183 11.3 13.9 0.00 0.00 0.00 83 1015.2
20260504023553 42 184 10.4 13.0 0.00 0.00 0.00 78 1015.2
20260504022528 42 196 7.8 12.2 0.00 0.00 0.00 76 1015.2
20260504021525 42 198 9.6 12.2 0.00 0.00 0.00 76 1015.2
20260504020522 42 195 10.4 15.6 0.00 0.00 0.00 76 1015.3
20260504015519 42 194 9.6 14.8 0.00 0.00 0.00 77 1015.2
20260504014516 42 205 8.7 13.0 0.00 0.00 0.00 77 1015.3
20260504013613 41 193 8.7 12.2 0.00 0.00 0.00 81 1015.5
20260504012530 40 190 10.4 13.0 0.00 0.00 0.00 84 1015.6
20260504011527 40 192 10.4 13.0 0.00 0.00 0.00 85 1015.7
20260504010524 40 190 9.6 13.0 0.00 0.00 0.00 85 1015.8
20260504005521 39 190 11.3 13.9 0.00 0.00 0.00 87 1015.7
20260504004518 39 186 10.4 12.2 0.00 0.00 0.00 87 1015.9
20260504003535 39 187 10.4 12.2 0.00 0.00 0.00 86 1016.0
20260504002532 40 185 9.6 12.2 0.00 0.00 0.00 85 1016.1
20260504001529 40 191 9.6 11.3 0.00 0.00 0.00 84 1016.2
20260504000526 40 187 10.4 12.2 0.00 0.00 0.00 83 1016.1
20260503235523 40 191 10.4 11.3 0.00 0.00 0.00 82 1016.2
20260503234520 41 186 8.7 12.2 0.00 0.00 0.00 81 1016.3
20260503233517 42 188 8.7 11.3 0.00 0.00 0.00 80 1016.3
20260503232535 44 190 9.6 11.3 0.00 0.00 0.00 75 1016.4
20260503231531 44 196 9.6 11.3 0.00 0.00 0.00 72 1016.5
20260503230528 45 190 9.6 11.3 0.00 0.00 0.00 70 1016.5
20260503225525 46 188 8.7 10.4 0.00 0.00 0.00 67 1016.6
20260503224542 46 194 7.8 9.6 0.00 0.00 0.00 66 1016.5
20260503223519 47 201 8.7 10.4 0.00 0.00 0.00 65 1016.4
20260503222517 47 193 7.8 9.6 0.00 0.00 0.00 65 1016.4
20260503221534 47 196 7.0 10.4 0.00 0.00 0.00 64 1016.5
20260503220551 47 204 7.8 10.4 0.00 0.00 0.00 65 1016.5
20260503215528 47 197 7.0 9.6 0.00 0.00 0.00 65 1016.6
20260503214605 47 194 7.0 9.6 0.00 0.00 0.00 67 1016.7
20260503213521 46 190 6.1 8.7 0.00 0.00 0.00 68 1016.8
20260503212518 47 193 7.0 10.4 0.00 0.00 0.00 68 1016.7
20260503211516 46 190 7.0 9.6 0.00 0.00 0.00 69 1016.7
20260503210553 46 203 7.8 11.3 0.00 0.00 0.00 71 1016.6
20260503205530 45 210 8.7 11.3 0.00 0.00 0.00 71 1016.7
20260503204527 46 208 8.7 11.3 0.00 0.00 0.00 70 1016.6
20260503203523 47 201 7.8 13.0 0.00 0.00 0.00 66 1016.7
20260503202541 47 195 7.8 10.4 0.00 0.00 0.00 66 1016.9
20260503201517 47 201 7.8 11.3 0.00 0.00 0.00 66 1016.8
20260503200535 48 189 7.0 9.6 0.00 0.00 0.00 67 1016.9
20260503195532 48 189 7.0 9.6 0.00 0.00 0.00 67 1017.0
20260503194529 48 197 7.8 11.3 0.00 0.00 0.00 65 1017.0
20260503193526 49 196 7.0 8.7 0.00 0.00 0.00 63 1017.0
20260503192523 49 195 6.1 8.7 0.00 0.00 0.00 64 1017.0
20260503191520 49 194 6.1 8.7 0.00 0.01 0.00 64 1017.1
20260503190517 49 193 6.1 8.7 0.00 0.01 0.00 64 1017.5
20260503185534 50 183 6.1 8.7 0.00 0.01 0.00 63 1017.4
20260503184531 50 184 5.2 8.7 0.00 0.01 0.00 61 1017.6
20260503183528 51 180 6.1 7.8 0.00 0.01 0.00 58 1017.6
20260503182525 51 181 6.1 8.7 0.00 0.01 0.00 57 1017.8
20260503181522 51 178 6.1 7.8 0.00 0.01 0.00 56 1017.8
20260503180519 51 165 6.1 11.3 0.00 0.01 0.00 55 1017.8
20260503175536 51 171 7.0 10.4 0.00 0.01 0.00 54 1017.8
20260503174534 52 162 7.0 9.6 0.00 0.01 0.00 54 1017.7
20260503173536 52 166 6.1 10.4 0.00 0.01 0.00 55 1017.7
20260503172533 52 160 7.0 11.3 0.00 0.01 0.00 54 1017.6
20260503171529 52 147 7.0 11.3 0.00 0.01 0.00 54 1017.7
20260503170526 52 138 7.8 13.0 0.00 0.01 0.00 56 1017.7
20260503150530 54 116 8.7 20.0 0.00 0.01 0.00 58 1017.5
20260503130535 54 116 11.3 21.7 0.00 0.01 0.00 67 1018.1
20260503110517 54 103 9.6 23.5 0.00 0.01 0.00 62 1018.3
20260503081526 49 178 4.3 7.0 0.00 0.01 0.00 76 1019.4
20260503080523 48 151 3.5 7.8 0.00 0.01 0.00 77 1019.4
20260503072530 48 37 5.2 13.9 0.00 0.01 0.00 75 1019.2
20260503071528 49 191 4.3 13.0 0.00 0.01 0.00 74 1019.1
20260503070525 49 176 3.5 7.8 0.00 0.01 0.00 73 1019.1
20260503054521 48 189 4.3 9.6 0.00 0.01 0.00 73 1018.8
20260503053538 47 258 3.5 7.0 0.00 0.01 0.00 74 1018.7